VK3CG Weather Reports


Display with metric or nautical units.
time (UTC)temp
F
wind
direction
speed
MPH
gust
MPH
rain 1hr
in
rain 24hr
in
rain mn
in
humidity
%
barometer
mb
20260510191505 39 193 0.0 0.0 0.00 0.01 0.00 69 1044.0
20260510190004 39 193 0.0 0.0 0.00 0.01 0.00 69 1043.8
20260510184503 39 193 0.0 0.0 0.00 0.01 0.00 68 1043.8
20260510183002 39 193 0.0 0.0 0.00 0.01 0.00 68 1043.8
20260510181600 39 193 0.0 0.0 0.00 0.01 0.00 68 1043.5
20260510180108 38 193 0.0 0.0 0.00 0.01 0.00 68 1043.4
20260510174606 39 193 0.0 0.0 0.00 0.01 0.00 68 1043.3
20260510173058 39 193 0.0 0.0 0.00 0.01 0.00 68 1043.2
20260510171604 39 193 0.0 0.0 0.00 0.01 0.00 68 1043.3
20260510170053 40 193 0.0 0.0 0.00 0.01 0.00 68 1043.3
20260510164605 40 193 0.0 0.0 0.00 0.01 0.00 68 1043.2
20260510163115 40 193 0.0 0.0 0.00 0.01 0.00 68 1043.2
20260510161545 38 193 0.0 0.0 0.00 0.01 0.00 68 1043.3
20260510160044 37 193 0.0 0.0 0.00 0.01 0.00 68 1043.4
20260510154541 37 193 0.0 0.0 0.00 0.01 0.00 67 1043.5
20260510153055 37 193 0.0 0.0 0.00 0.01 0.00 67 1043.4
20260510151538 37 193 0.0 0.0 0.00 0.01 0.00 67 1043.3
20260510150041 37 193 0.0 0.0 0.00 0.01 0.00 67 1043.3
20260510144543 37 193 0.0 0.0 0.00 0.01 0.00 67 1043.4
20260510143038 37 193 0.0 0.0 0.00 0.01 0.00 66 1043.4
20260510141534 37 193 0.0 0.0 0.00 0.01 0.00 67 1043.4
20260510140033 38 193 0.0 0.0 0.00 0.01 0.01 66 1043.4
20260510134526 39 193 0.0 0.0 0.00 0.01 0.01 66 1043.4
20260510133025 39 193 0.0 0.0 0.00 0.01 0.01 66 1043.4
20260510131525 40 193 0.0 0.0 0.00 0.01 0.01 67 1043.5
20260510130020 41 193 0.0 0.0 0.00 0.01 0.01 66 1043.5
20260510124525 41 193 0.0 0.0 0.00 0.01 0.01 66 1043.5
20260510123018 41 193 0.0 0.0 0.00 0.01 0.01 67 1043.8
20260510121518 41 193 0.0 0.0 0.00 0.01 0.01 66 1043.7
20260510120016 42 193 0.0 0.0 0.00 0.01 0.01 66 1043.8
20260510114514 42 193 0.0 0.0 0.00 0.01 0.01 66 1043.7
20260510113012 42 193 0.0 0.0 0.00 0.01 0.01 66 1043.5
20260510111511 42 193 0.0 0.0 0.00 0.01 0.01 66 1043.5
20260510110010 43 193 0.0 0.0 0.00 0.01 0.01 66 1043.4
20260510104508 43 193 0.0 0.0 0.00 0.01 0.01 66 1043.3
20260510103006 44 193 0.0 0.0 0.00 0.01 0.01 66 1043.2
20260510101504 44 193 0.0 0.0 0.00 0.01 0.01 66 1043.2
20260510100003 45 193 0.0 1.0 0.00 0.01 0.01 66 1043.3
20260510094608 45 193 0.0 0.0 0.00 0.01 0.01 66 1043.1
20260510093102 46 193 0.0 0.0 0.00 0.01 0.01 66 1043.0
20260510091556 46 193 0.0 0.0 0.00 0.01 0.01 66 1042.8
20260510084610 47 193 0.0 0.0 0.00 0.01 0.01 65 1042.5
20260510083051 48 193 0.0 2.0 0.00 0.01 0.01 65 1042.3
20260510081553 49 193 0.0 1.0 0.00 0.01 0.01 65 1042.2
20260510080047 50 193 0.0 1.0 0.00 0.01 0.01 64 1042.0
20260510074547 51 192 0.0 2.0 0.00 0.01 0.01 63 1041.8
20260510073046 51 192 1.0 4.0 0.00 0.01 0.01 63 1041.6
20260510071546 52 177 0.0 4.0 0.00 0.01 0.01 62 1041.6
20260510070050 53 227 1.0 6.0 0.00 0.01 0.01 62 1041.6
20260510064548 53 121 0.0 5.0 0.00 0.01 0.01 61 1041.5
20260510063048 54 153 0.0 5.0 0.00 0.01 0.01 60 1041.3
20260510061543 54 153 0.0 6.0 0.00 0.01 0.01 60 1041.2
20260510060044 55 137 1.0 5.0 0.00 0.01 0.01 60 1041.2
20260510054542 55 202 2.0 7.0 0.00 0.01 0.01 59 1041.0
20260510053041 55 215 2.0 6.0 0.00 0.01 0.01 59 1041.0
20260510051546 56 232 2.0 8.0 0.00 0.01 0.01 59 1041.0
20260510050041 56 132 1.0 11.0 0.00 0.01 0.01 58 1041.0
20260510044539 57 89 3.0 10.0 0.00 0.01 0.01 57 1040.9
20260510043041 57 120 3.0 8.0 0.00 0.01 0.01 58 1040.9
20260510041537 57 200 3.0 9.0 0.00 0.01 0.01 58 1040.8
20260510040036 57 126 4.0 8.0 0.00 0.01 0.01 58 1041.0
20260510034541 56 114 2.0 8.0 0.00 0.01 0.01 59 1041.0
20260510033032 56 198 1.0 6.0 0.00 0.01 0.01 59 1041.2
20260510031532 56 195 3.0 9.0 0.00 0.01 0.01 59 1041.4
20260510030031 56 182 2.0 7.0 0.00 0.01 0.01 59 1041.6
20260510024530 56 183 2.0 6.0 0.00 0.01 0.01 60 1041.7
20260510023028 55 154 2.0 8.0 0.00 0.01 0.01 61 1041.9
20260510021526 55 209 3.0 8.0 0.00 0.01 0.01 62 1041.9
20260510020024 54 223 1.0 9.0 0.00 0.01 0.01 65 1042.0
20260510014519 54 124 2.0 8.0 0.00 0.01 0.01 70 1042.1
20260510013016 52 140 1.0 8.0 0.00 0.01 0.01 74 1042.4
20260510011525 51 150 2.0 9.0 0.00 0.01 0.01 76 1042.7
20260510010010 51 147 2.0 8.0 0.00 0.01 0.01 76 1042.7
20260510004512 50 153 2.0 6.0 0.00 0.01 0.01 76 1042.5
20260510003008 50 158 1.0 6.0 0.00 0.01 0.01 76 1042.6
20260510001506 50 167 1.0 7.0 0.00 0.01 0.01 76 1042.6
20260510000013 50 186 1.0 4.0 0.00 0.01 0.01 77 1042.6
20260509234504 50 183 1.0 7.0 0.00 0.01 0.01 77 1042.6
20260509233002 50 160 2.0 7.0 0.00 0.01 0.01 77 1042.5
20260509231500 50 156 2.0 5.0 0.01 0.01 0.01 77 1042.4
20260509230100 50 148 1.0 5.0 0.01 0.01 0.01 76 1042.4
20260509224558 50 191 0.0 8.0 0.01 0.01 0.01 76 1042.2
20260509223102 50 164 0.0 5.0 0.01 0.01 0.01 76 1042.2
20260509221552 50 203 0.0 3.0 0.00 0.00 0.00 76 1042.1
20260509220049 49 177 0.0 3.0 0.00 0.00 0.00 76 1041.8
20260509214546 49 147 1.0 4.0 0.00 0.00 0.00 76 1041.5
20260509213044 49 142 1.0 4.0 0.00 0.00 0.00 76 1041.3
20260509211544 49 185 0.0 4.0 0.00 0.00 0.00 76 1041.1
20260509210049 49 159 1.0 6.0 0.00 0.00 0.00 76 1040.9
20260509204549 49 186 1.0 7.0 0.00 0.00 0.00 76 1040.8
20260509203037 49 158 2.0 6.0 0.00 0.00 0.00 76 1040.8
20260509201538 50 128 1.0 5.0 0.00 0.00 0.00 76 1040.7
20260509200036 50 123 1.0 8.0 0.00 0.00 0.00 76 1040.5
20260509194536 50 152 0.0 3.0 0.00 0.00 0.00 76 1040.4
20260509193031 50 123 3.0 9.0 0.00 0.00 0.00 76 1040.1